,,,PA_Meas_PMT16A,,PR_Meas_QMR101_102,,RH_Meas_QMH101,,SR_Meas_QMS101,,TA_Meas_QMH101,,GenWind,,GenWind,
date,time,status,PA,status,PR,status,RH,status,SR,status,TA,status,DirAvg,status,SpdAvg,
2010-10-23, 00:00:04,VALID,1003.15,VALID,0,INVALID,154.187,VALID,2.41351,VALID,23.4487,VALID,357,VALID,0.533984,
2010-10-23, 00:01:04,VALID,1003.15,VALID,0,INVALID,154.195,VALID,2.7152,VALID,23.4293,VALID,357,VALID,0.683984,
2010-10-23, 00:02:04,VALID,1003.13,VALID,0,INVALID,154.233,VALID,2.91633,VALID,23.4098,VALID,357,VALID,0.599219,
2010-10-23, 00:03:04,VALID,1003.15,VALID,0,INVALID,154.172,VALID,3.21801,VALID,23.4098,VALID,357,VALID,0.622656,
2010-10-23, 00:04:04,VALID,1003.17,VALID,0,INVALID,154.119,VALID,3.5197,VALID,23.4311,VALID,357,VALID,0.298828,
2010-10-23, 00:05:04,VALID,1003.18,VALID,0,INVALID,154.08,VALID,4.02252,VALID,23.4098,VALID,357,VALID,0.426172,
2010-10-23, 00:06:04,VALID,1003.2,VALID,0,INVALID,153.806,VALID,4.6259,VALID,23.4487,VALID,358,VALID,0.195703,
2010-10-23, 00:07:04,VALID,1003.21,VALID,0,INVALID,153.691,VALID,5.22927,VALID,23.4487,VALID,358,VALID,0.260156,
2010-10-23, 00:08:04,VALID,1003.21,VALID,0,INVALID,153.6,VALID,5.63153,VALID,23.4877,VALID,358,VALID,0.214453,
2010-10-23, 00:09:04,VALID,1003.21,VALID,0,INVALID,153.485,VALID,5.93321,VALID,23.4664,VALID,358,VALID,0.208984,
2010-10-23, 00:10:04,VALID,1003.23,VALID,0,INVALID,153.325,VALID,6.13434,VALID,23.5266,VALID,358,VALID,0.155469,
2010-10-23, 00:11:04,VALID,1003.24,VALID,0,INVALID,153.196,VALID,6.43603,VALID,23.546,VALID,358,VALID,0.00234375,
2010-10-23, 00:12:04,VALID,1003.23,VALID,0,INVALID,152.936,VALID,6.73772,VALID,23.585,VALID,358,VALID,0.353125,
2010-10-23, 00:13:04,VALID,1003.24,VALID,0,INVALID,152.936,VALID,7.13997,VALID,23.585,VALID,358,VALID,0.370703,
2010-10-23, 00:14:04,VALID,1003.27,VALID,0,INVALID,153.012,VALID,7.44166,VALID,23.6062,VALID,358,VALID,0.325391,
2010-10-23, 00:15:04,VALID,1003.27,VALID,0,INVALID,153.028,VALID,7.94447,VALID,23.585,VALID,358,VALID,0.373437,
2010-10-23, 00:16:04,VALID,1003.3,VALID,0,INVALID,153.035,VALID,8.04504,VALID,23.585,VALID,358,VALID,0.433594,
2010-10-23, 00:17:04,VALID,1003.3,VALID,0,INVALID,153.043,VALID,8.44729,VALID,23.585,VALID,358,VALID,0.461328,
2010-10-23, 00:18:04,VALID,1003.34,VALID,0,INVALID,152.974,VALID,8.9501,VALID,23.5637,VALID,358,VALID,0.3875,
2010-10-23, 00:19:04,VALID,1003.34,VALID,0,INVALID,152.921,VALID,9.45292,VALID,23.6062,VALID,358,VALID,0.633203,
2010-10-23, 00:20:04,VALID,1003.35,VALID,0,INVALID,152.784,VALID,9.85517,VALID,23.6044,VALID,358,VALID,0.552344,
2010-10-23, 00:21:04,VALID,1003.35,VALID,0,INVALID,152.654,VALID,10.1569,VALID,23.6434,VALID,358,VALID,0.417969,
2010-10-23, 00:22:04,VALID,1003.33,VALID,0,INVALID,152.723,VALID,10.6597,VALID,23.6044,VALID,358,VALID,0.312891,
2010-10-23, 00:23:04,VALID,1003.34,VALID,0,INVALID,152.784,VALID,11.2631,VALID,23.6044,VALID,358,VALID,0.0117188,
2010-10-23, 00:24:04,VALID,1003.34,VALID,0,INVALID,152.868,VALID,12.0676,VALID,23.585,VALID,358,VALID,0,
2010-10-23, 00:25:04,VALID,1003.38,VALID,0,INVALID,152.745,VALID,12.7715,VALID,23.6044,VALID,358,VALID,0.200391,
2010-10-23, 00:26:04,VALID,1003.35,VALID,0,INVALID,152.555,VALID,13.6766,VALID,23.6239,VALID,358,VALID,0.05625,
2010-10-23, 00:27:04,VALID,1003.37,VALID,0,INVALID,152.364,VALID,15.2856,VALID,23.6841,VALID,358,VALID,0,
2010-10-23, 00:28:04,VALID,1003.37,VALID,0,INVALID,152.326,VALID,18.0008,VALID,23.6628,VALID,358,VALID,0,
2010-10-23, 00:29:04,VALID,1003.38,VALID,0,INVALID,152.181,VALID,21.0177,VALID,23.7017,VALID,358,VALID,0,
2010-10-23, 00:30:04,VALID,1003.42,VALID,0,INVALID,151.952,VALID,23.0289,VALID,23.7407,VALID,358,VALID,0.224219,
2010-10-23, 00:31:04,VALID,1003.43,VALID,0,INVALID,151.807,VALID,24.839,VALID,23.7796,VALID,358,VALID,0.330859,
2010-10-23, 00:32:04,VALID,1003.45,VALID,0,INVALID,151.86,VALID,27.9565,VALID,23.7796,VALID,358,VALID,0.230078,
2010-10-23, 00:33:04,VALID,1003.48,VALID,0,INVALID,151.937,VALID,31.979,VALID,23.7991,VALID,358,VALID,0.168359,
2010-10-23, 00:34:04,VALID,1003.47,VALID,0,INVALID,151.944,VALID,36.806,VALID,23.7991,VALID,358,VALID,0.00195313,
2010-10-23, 00:35:04,VALID,1003.49,VALID,0,INVALID,151.868,VALID,42.7393,VALID,23.8185,VALID,358,VALID,0.211328,
2010-10-23, 00:36:04,VALID,1003.56,VALID,0,INVALID,151.7,VALID,50.9854,VALID,23.8575,VALID,358,VALID,0.275391,
2010-10-23, 00:37:04,VALID,1003.56,VALID,0,INVALID,151.441,VALID,61.8462,VALID,23.9353,VALID,358,VALID,0.232812,
2010-10-23, 00:38:04,VALID,1003.57,VALID,0,INVALID,151.319,VALID,73.9138,VALID,23.9937,VALID,358,VALID,0.204297,
2010-10-23, 00:39:04,VALID,1003.59,VALID,0,INVALID,151.159,VALID,84.4729,VALID,24.0521,VALID,358,VALID,0.272266,
2010-10-23, 00:40:04,VALID,1003.61,VALID,0,INVALID,150.976,VALID,91.6128,VALID,24.1513,VALID,358,VALID,0.303906,
2010-10-23, 00:41:04,VALID,1003.63,VALID,0,INVALID,150.77,VALID,94.1269,VALID,24.2273,VALID,358,VALID,0.317578,
2010-10-23, 00:42:04,VALID,1003.68,VALID,0,INVALID,150.579,VALID,95.7359,VALID,24.3052,VALID,358,VALID,0.00585938,
2010-10-23, 00:43:04,VALID,1003.67,VALID,0,INVALID,150.442,VALID,98.5517,VALID,24.383,VALID,358,VALID,0,
2010-10-23, 00:44:04,VALID,1003.71,VALID,0,INVALID,150.243,VALID,104.485,VALID,24.4804,VALID,358,VALID,0.350391,
2010-10-23, 00:45:04,VALID,1003.72,VALID,0,INVALID,150.243,VALID,110.619,VALID,24.5601,VALID,358,VALID,0.364844,
2010-10-23, 00:46:04,VALID,1003.74,VALID,0,INVALID,150.251,VALID,115.949,VALID,24.6185,VALID,358,VALID,0.414844,
2010-10-23, 00:47:04,VALID,1003.76,VALID,0,INVALID,150.266,VALID,120.575,VALID,24.6556,VALID,358,VALID,0.463281,
2010-10-23, 00:48:04,VALID,1003.75,VALID,0,INVALID,150.396,VALID,123.793,VALID,24.7353,VALID,358,VALID,0.344531,
2010-10-23, 00:49:04,VALID,1003.78,VALID,0,INVALID,150.472,VALID,124.195,VALID,24.7919,VALID,358,VALID,0.274219,
2010-10-23, 00:50:04,VALID,1003.8,VALID,0,INVALID,150.35,VALID,130.028,VALID,24.8892,VALID,358,VALID,0.0292969,
2010-10-23, 00:51:04,VALID,1003.8,VALID,0,INVALID,150.304,VALID,135.559,VALID,25.0079,VALID,358,VALID,0,
2010-10-23, 00:52:04,VALID,1003.8,VALID,0,INVALID,150.236,VALID,138.777,VALID,25.1034,VALID,358,VALID,0,
2010-10-23, 00:53:04,VALID,1003.81,VALID,0,INVALID,150.449,VALID,142.095,VALID,25.2007,VALID,358,VALID,0,
2010-10-23, 00:54:04,VALID,1003.83,VALID,0,INVALID,150.754,VALID,145.313,VALID,25.2786,VALID,358,VALID,0,
2010-10-23, 00:55:04,VALID,1003.81,VALID,0,INVALID,151.319,VALID,148.029,VALID,25.3565,VALID,358,VALID,0,
2010-10-23, 00:56:04,VALID,1003.86,VALID,0,INVALID,151.639,VALID,151.649,VALID,25.4558,VALID,358,VALID,0,
2010-10-23, 00:57:04,VALID,1003.86,VALID,0,INVALID,151.876,VALID,156.778,VALID,25.5707,VALID,358,VALID,0,
2010-10-23, 00:58:04,VALID,1003.89,VALID,0,INVALID,152.486,VALID,161.404,VALID,25.6895,VALID,358,VALID,0,
2010-10-23, 00:59:04,VALID,1003.87,VALID,0,INVALID,153.211,VALID,165.728,VALID,25.746,VALID,358,VALID,0,
2010-10-23, 01:00:04,VALID,1003.88,VALID,0,INVALID,153.821,VALID,169.75,VALID,25.8434,VALID,358,VALID,0,
2010-10-23, 01:01:04,VALID,1003.9,VALID,0,INVALID,154.317,VALID,172.767,VALID,26.0031,VALID,358,VALID,0,
2010-10-23, 01:02:04,VALID,1003.95,VALID,0,INVALID,155.057,VALID,175.885,VALID,26.0576,VALID,358,VALID,0,
2010-10-23, 01:03:04,VALID,1003.91,VALID,0,INVALID,156.171,VALID,179.103,VALID,26.157,VALID,357,VALID,0,
2010-10-23, 01:04:04,VALID,1003.94,VALID,0,INVALID,157.239,VALID,182.421,VALID,26.2349,VALID,357,VALID,0,
2010-10-23, 01:05:04,VALID,1003.95,VALID,0,INVALID,158.673,VALID,185.941,VALID,26.2719,VALID,357,VALID,0,
2010-10-23, 01:06:04,VALID,1003.97,VALID,0,INVALID,160.321,VALID,189.863,VALID,26.3323,VALID,357,VALID,0,
2010-10-23, 01:07:04,VALID,1004,VALID,0,INVALID,161.336,VALID,193.885,VALID,26.4102,VALID,358,VALID,0,
2010-10-23, 01:08:04,VALID,1003.95,VALID,0,INVALID,162.251,VALID,197.405,VALID,26.5466,VALID,358,VALID,0,
2010-10-23, 01:09:04,VALID,1004.03,VALID,0,INVALID,163.25,VALID,201.428,VALID,26.644,VALID,358,VALID,0,
2010-10-23, 01:10:04,VALID,1004,VALID,0,INVALID,163.388,VALID,204.746,VALID,26.7219,VALID,358,VALID,0,
2010-10-23, 01:11:04,VALID,1004.03,VALID,0,INVALID,163.411,VALID,206.959,VALID,26.8388,VALID,358,VALID,0.114844,
2010-10-23, 01:12:04,VALID,1004.07,VALID,0,INVALID,163.388,VALID,209.975,VALID,26.9147,VALID,358,VALID,0.224219,
2010-10-23, 01:13:04,VALID,1004.11,VALID,0,INVALID,163.403,VALID,214.3,VALID,27.09,VALID,358,VALID,0,
2010-10-23, 01:14:04,VALID,1004.12,VALID,0,INVALID,163.372,VALID,219.629,VALID,27.248,VALID,358,VALID,0.455859,
2010-10-23, 01:15:04,VALID,1004.13,VALID,0,INVALID,163.38,VALID,224.859,VALID,27.3844,VALID,357,VALID,0.194141,
2010-10-23, 01:16:04,VALID,1004.15,VALID,0,INVALID,163.365,VALID,229.786,VALID,27.5013,VALID,8,VALID,0.669922,
2010-10-23, 01:17:04,VALID,1004.15,VALID,0,INVALID,128.646,VALID,235.016,VALID,27.5598,VALID,2,VALID,0.242578,
2010-10-23, 01:18:04,VALID,1004.16,VALID,0,INVALID,109.566,VALID,239.44,VALID,27.6572,VALID,2,VALID,0.235938,
2010-10-23, 01:19:04,VALID,1004.21,VALID,0,VALID,95.895,VALID,243.563,VALID,27.7915,VALID,2,VALID,0.312109,
2010-10-23, 01:20:04,VALID,1004.21,VALID,0,VALID,91.4169,VALID,246.983,VALID,27.9885,VALID,2,VALID,0.703906,
2010-10-23, 01:21:04,VALID,1004.24,VALID,0,VALID,90.6998,VALID,249.698,VALID,28.0881,VALID,17,VALID,0.419141,
2010-10-23, 01:22:04,VALID,1004.25,VALID,0,VALID,90.6464,VALID,253.117,VALID,28.2029,VALID,45,VALID,0.316797,
2010-10-23, 01:23:04,VALID,1004.28,VALID,0,VALID,91.1804,VALID,256.838,VALID,28.3393,VALID,28,VALID,0.422266,
2010-10-23, 01:24:04,VALID,1004.32,VALID,0,VALID,90.0666,VALID,260.961,VALID,28.4584,VALID,28,VALID,0.308594,
2010-10-23, 01:25:04,VALID,1004.28,VALID,0,VALID,87.961,VALID,266.693,VALID,28.5516,VALID,28,VALID,0.185156,
2010-10-23, 01:26:04,VALID,1004.3,VALID,0,VALID,86.3589,VALID,270.917,VALID,28.6122,VALID,28,VALID,0.183984,
2010-10-23, 01:27:04,VALID,1004.28,VALID,0,VALID,86.954,VALID,273.732,VALID,28.7898,VALID,28,VALID,0.243359,
2010-10-23, 01:28:04,VALID,1004.28,VALID,0,VALID,84.4746,VALID,276.246,VALID,28.9263,VALID,15,VALID,0.525,
2010-10-23, 01:29:04,VALID,1004.29,VALID,0,VALID,84.8026,VALID,278.861,VALID,28.9848,VALID,12,VALID,0.359375,
2010-10-23, 01:30:04,VALID,1004.32,VALID,0,VALID,84.6348,VALID,282.884,VALID,29.026,VALID,25,VALID,0.520703,
2010-10-23, 01:31:04,VALID,1004.28,VALID,0,VALID,84.5585,VALID,287.208,VALID,29.0433,VALID,25,VALID,0.68125,
2010-10-23, 01:32:04,VALID,1004.32,VALID,0,VALID,83.8338,VALID,291.13,VALID,28.9848,VALID,351,VALID,0.701563,
2010-10-23, 01:33:04,VALID,1004.31,VALID,0,VALID,83.3531,VALID,295.353,VALID,28.8115,VALID,352,VALID,1.16484,
2010-10-23, 01:34:04,VALID,1004.34,VALID,0,VALID,84.1847,VALID,270.414,VALID,28.5949,VALID,351,VALID,1.08203,
2010-10-23, 01:35:04,VALID,1004.34,VALID,0,VALID,86.42,VALID,245.374,VALID,28.4173,VALID,354,VALID,1.03359,
2010-10-23, 01:36:04,VALID,1004.34,VALID,0,VALID,87.8313,VALID,264.179,VALID,28.3198,VALID,357,VALID,0.857813,
2010-10-23, 01:37:04,VALID,1004.41,VALID,0,VALID,87.7321,VALID,303.298,VALID,28.205,VALID,1,VALID,0.521094,
2010-10-23, 01:38:04,VALID,1004.39,VALID,0,VALID,86.5268,VALID,321.5,VALID,28.1855,VALID,353,VALID,0.817578,
2010-10-23, 01:39:04,VALID,1004.4,VALID,0,VALID,87.3049,VALID,325.019,VALID,28.1271,VALID,30,VALID,0.788281,
2010-10-23, 01:40:04,VALID,1004.42,VALID,0,VALID,87.5109,VALID,327.835,VALID,28.0881,VALID,360,VALID,1.08359,
2010-10-23, 01:41:04,VALID,1004.41,VALID,0,VALID,88.1899,VALID,331.254,VALID,28.1076,VALID,351,VALID,0.669531,
2010-10-23, 01:42:04,VALID,1004.4,VALID,0,VALID,88.1975,VALID,335.579,VALID,28.1834,VALID,355,VALID,0.551172,
2010-10-23, 01:43:04,VALID,1004.44,VALID,0,VALID,87.2515,VALID,339.4,VALID,28.2635,VALID,357,VALID,0.724219,
2010-10-23, 01:44:04,VALID,1004.45,VALID,0,VALID,87.16,VALID,344.428,VALID,28.283,VALID,31,VALID,0.722656,
2010-10-23, 01:45:04,VALID,1004.45,VALID,0,VALID,87.0837,VALID,350.261,VALID,28.1834,VALID,32,VALID,0.867969,
2010-10-23, 01:46:04,VALID,1004.46,VALID,0,VALID,87.4499,VALID,354.887,VALID,28.205,VALID,353,VALID,0.770312,
2010-10-23, 01:47:04,VALID,1004.48,VALID,0,VALID,87.0226,VALID,358.507,VALID,28.283,VALID,345,VALID,0.669531,
2010-10-23, 01:48:04,VALID,1004.49,VALID,0,VALID,85.1383,VALID,363.032,VALID,28.322,VALID,16,VALID,0.732031,
2010-10-23, 01:49:04,VALID,1004.48,VALID,0,VALID,84.7874,VALID,366.25,VALID,28.3805,VALID,10,VALID,0.373828,
2010-10-23, 01:50:04,VALID,1004.5,VALID,0,VALID,83.4447,VALID,369.267,VALID,28.4606,VALID,357,VALID,0.436328,
2010-10-23, 01:51:04,VALID,1004.53,VALID,0,VALID,83.9406,VALID,373.792,VALID,28.5559,VALID,28,VALID,0.447656,
2010-10-23, 01:52:04,VALID,1004.49,VALID,0,VALID,83.4142,VALID,378.117,VALID,28.6924,VALID,107,VALID,0.600781,
2010-10-23, 01:53:04,VALID,1004.53,VALID,0,VALID,83.7498,VALID,382.441,VALID,28.87,VALID,64,VALID,0.417578,
2010-10-23, 01:54:04,VALID,1004.55,VALID,0,VALID,82.0639,VALID,384.955,VALID,28.9848,VALID,107,VALID,0.688281,
2010-10-23, 01:55:04,VALID,1004.58,VALID,0,VALID,80.2635,VALID,389.48,VALID,29.1798,VALID,117,VALID,0.495703,
2010-10-23, 01:56:04,VALID,1004.57,VALID,0,VALID,80.6602,VALID,394.911,VALID,29.2361,VALID,74,VALID,0.959375,
2010-10-23, 01:57:04,VALID,1004.57,VALID,0,VALID,77.7078,VALID,363.032,VALID,29.1971,VALID,76,VALID,0.533594,
2010-10-23, 01:58:04,VALID,1004.6,VALID,0,VALID,78.341,VALID,407.079,VALID,29.2578,VALID,96,VALID,0.746875,
2010-10-23, 01:59:04,VALID,1004.57,VALID,0,VALID,79.4243,VALID,298.571,VALID,29.3725,VALID,73,VALID,0.768359,
2010-10-23, 02:00:04,VALID,1004.6,VALID,0,VALID,76.037,VALID,233.708,VALID,29.4333,VALID,3,VALID,0.946484,
2010-10-23, 02:01:04,VALID,1004.6,VALID,0,VALID,79.7523,VALID,259.754,VALID,29.4138,VALID,98,VALID,0.725391,
2010-10-23, 02:02:04,VALID,1004.59,VALID,0,VALID,78.7606,VALID,448.712,VALID,29.3163,VALID,56,VALID,0.652344,
2010-10-23, 02:03:04,VALID,1004.62,VALID,0,VALID,77.5857,VALID,422.867,VALID,29.3163,VALID,27,VALID,1.06172,
2010-10-23, 02:04:04,VALID,1004.64,VALID,0,VALID,78.8369,VALID,488.133,VALID,29.2578,VALID,28,VALID,0.942578,
2010-10-23, 02:05:04,VALID,1004.66,VALID,0,VALID,80.5991,VALID,133.749,VALID,29.2578,VALID,30,VALID,0.782031,
2010-10-23, 02:06:04,VALID,1004.69,VALID,0,VALID,77.6773,VALID,192.377,VALID,29.1798,VALID,79,VALID,0.364453,
2010-10-23, 02:07:04,VALID,1004.73,VALID,0,VALID,77.9824,VALID,243.765,VALID,29.1603,VALID,110,VALID,1.05742,
2010-10-23, 02:08:04,VALID,1004.75,VALID,0,VALID,79.4166,VALID,166.13,VALID,29.0823,VALID,110,VALID,0.805859,
2010-10-23, 02:09:04,VALID,1004.86,VALID,0,VALID,81.7053,VALID,148.632,VALID,29.0823,VALID,107,VALID,0.761328,
2010-10-23, 02:10:04,VALID,1004.79,VALID,0,VALID,80.3245,VALID,126.408,VALID,29.0455,VALID,106,VALID,0.802734,
2010-10-23, 02:11:04,VALID,1004.78,VALID,0,VALID,79.2107,VALID,117.86,VALID,28.9458,VALID,84,VALID,0.255469,
2010-10-23, 02:12:04,VALID,1004.78,VALID,0,VALID,79.6913,VALID,119.871,VALID,28.9263,VALID,62,VALID,0.292578,
2010-10-23, 02:13:04,VALID,1004.82,VALID,0,VALID,80.21,VALID,126.609,VALID,28.8873,VALID,62,VALID,0.242969,
2010-10-23, 02:14:04,VALID,1004.82,VALID,0,VALID,80.6602,VALID,131.235,VALID,28.8873,VALID,62,VALID,0.303906,
2010-10-23, 02:15:04,VALID,1004.85,VALID,0,VALID,81.1484,VALID,149.235,VALID,28.8678,VALID,62,VALID,0.326953,
2010-10-23, 02:16:04,VALID,1004.84,VALID,0,VALID,80.7822,VALID,148.632,VALID,28.8483,VALID,62,VALID,0.205078,
2010-10-23, 02:17:04,VALID,1004.84,VALID,0,VALID,82.4148,VALID,134.151,VALID,28.8483,VALID,62,VALID,0.349609,
2010-10-23, 02:18:04,VALID,1004.84,VALID,0,VALID,81.4688,VALID,133.145,VALID,28.8093,VALID,63,VALID,0.36875,
2010-10-23, 02:19:04,VALID,1004.82,VALID,0,VALID,80.9577,VALID,142.498,VALID,28.7898,VALID,63,VALID,0.439844,
2010-10-23, 02:20:04,VALID,1004.84,VALID,0,VALID,80.088,VALID,152.755,VALID,28.7119,VALID,138,VALID,0.373047,
2010-10-23, 02:21:04,VALID,1004.83,VALID,0,VALID,81.0569,VALID,158.99,VALID,28.6512,VALID,138,VALID,0.550391,
2010-10-23, 02:22:04,VALID,1004.83,VALID,0,VALID,82.4301,VALID,157.28,VALID,28.6729,VALID,138,VALID,0.441016,
2010-10-23, 02:23:04,VALID,1004.82,VALID,0,VALID,81.9647,VALID,160.599,VALID,28.6144,VALID,126,VALID,0.716016,
2010-10-23, 02:24:04,VALID,1004.83,VALID,0,VALID,82.1783,VALID,162.309,VALID,28.5949,VALID,126,VALID,0.514063,
2010-10-23, 02:25:04,VALID,1004.84,VALID,0,VALID,81.9037,VALID,151.146,VALID,28.5754,VALID,124,VALID,0.445703,
2010-10-23, 02:26:04,VALID,1004.85,VALID,0,VALID,82.4987,VALID,150.04,VALID,28.5949,VALID,126,VALID,0.355469,
2010-10-23, 02:27:04,VALID,1004.85,VALID,0,VALID,81.6061,VALID,185.74,VALID,28.6339,VALID,138,VALID,0.448047,
2010-10-23, 02:28:04,VALID,1004.85,VALID,0,VALID,82.2012,VALID,628.418,VALID,28.7509,VALID,145,VALID,0.326172,
2010-10-23, 02:29:04,VALID,1004.86,VALID,0,VALID,80.1566,VALID,635.658,VALID,28.9458,VALID,147,VALID,0.278516,
2010-10-23, 02:30:04,VALID,1004.87,VALID,0,VALID,79.882,VALID,200.321,VALID,29.1993,VALID,105,VALID,0.427344,
2010-10-23, 02:31:04,VALID,1004.84,VALID,0,VALID,78.8369,VALID,154.867,VALID,29.3553,VALID,46,VALID,0.309375,
2010-10-23, 02:32:04,VALID,1004.87,VALID,0,VALID,76.8381,VALID,244.267,VALID,29.4333,VALID,126,VALID,0.789844,
2010-10-23, 02:33:04,VALID,1004.86,VALID,0,VALID,74.8927,VALID,187.349,VALID,29.3553,VALID,175,VALID,1.3832,
2010-10-23, 02:34:04,VALID,1004.89,VALID,0,VALID,75.7777,VALID,190.265,VALID,29.2968,VALID,155,VALID,1.55078,
2010-10-23, 02:35:04,VALID,1004.9,VALID,0,VALID,78.0129,VALID,180.812,VALID,29.2383,VALID,140,VALID,1.03984,
2010-10-23, 02:36:04,VALID,1004.92,VALID,0,VALID,75.4496,VALID,198.813,VALID,29.1213,VALID,128,VALID,1.08945,
2010-10-23, 02:37:04,VALID,1004.92,VALID,0,VALID,77.3111,VALID,187.55,VALID,29.0823,VALID,125,VALID,0.391406,
2010-10-23, 02:38:04,VALID,1004.93,VALID,0,VALID,75.3962,VALID,170.756,VALID,29.0823,VALID,168,VALID,0.727734,
2010-10-23, 02:39:04,VALID,1004.93,VALID,0,VALID,74.8698,VALID,171.661,VALID,29.0823,VALID,180,VALID,0.651563,
2010-10-23, 02:40:04,VALID,1004.92,VALID,0,VALID,75.4267,VALID,162.107,VALID,29.0628,VALID,161,VALID,0.564844,
2010-10-23, 02:41:04,VALID,1004.93,VALID,0,VALID,78.1426,VALID,159.895,VALID,29.0043,VALID,93,VALID,0.590234,
2010-10-23, 02:42:04,VALID,1004.88,VALID,0,VALID,78.6309,VALID,159.996,VALID,28.9826,VALID,96,VALID,0.617969,
2010-10-23, 02:43:04,VALID,1004.9,VALID,0,VALID,77.1432,VALID,157.783,VALID,29.0043,VALID,155,VALID,1.09414,
2010-10-23, 02:44:04,VALID,1004.89,VALID,0,VALID,77.2195,VALID,152.956,VALID,28.9458,VALID,122,VALID,0.687109,
2010-10-23, 02:45:04,VALID,1004.89,VALID,0,VALID,78.2342,VALID,147.727,VALID,28.9458,VALID,113,VALID,0.692578,
2010-10-23, 02:46:04,VALID,1004.91,VALID,0,VALID,79.7294,VALID,147.828,VALID,28.9241,VALID,86,VALID,0.551172,
2010-10-23, 02:47:04,VALID,1004.9,VALID,0,VALID,79.0123,VALID,137.771,VALID,28.9263,VALID,89,VALID,0.533203,
2010-10-23, 02:48:04,VALID,1004.94,VALID,0,VALID,78.9208,VALID,134.352,VALID,28.9263,VALID,86,VALID,0.719141,
2010-10-23, 02:49:04,VALID,1004.94,VALID,0,VALID,79.3327,VALID,136.665,VALID,28.9046,VALID,156,VALID,0.421875,
2010-10-23, 02:50:04,VALID,1004.95,VALID,0,VALID,77.3263,VALID,129.626,VALID,28.9458,VALID,180,VALID,0.323828,
2010-10-23, 02:51:04,VALID,1004.98,VALID,0,VALID,78.8826,VALID,135.559,VALID,28.9458,VALID,142,VALID,0.673047,
2010-10-23, 02:52:04,VALID,1004.95,VALID,0,VALID,79.1725,VALID,176.589,VALID,28.9653,VALID,192,VALID,0.988281,
2010-10-23, 02:53:04,VALID,1004.97,VALID,0,VALID,77.2806,VALID,672.263,VALID,28.9436,VALID,148,VALID,1.96758,
2010-10-23, 02:54:04,VALID,1004.93,VALID,0,VALID,77.2577,VALID,733.406,VALID,29.0801,VALID,150,VALID,1.97969,
2010-10-23, 02:55:04,VALID,1004.97,VALID,0,VALID,77.6391,VALID,779.866,VALID,29.2383,VALID,165,VALID,0.865625,
2010-10-23, 02:56:04,VALID,1004.95,VALID,0,VALID,77.5705,VALID,791.229,VALID,29.47,VALID,114,VALID,1.30547,
2010-10-23, 02:57:04,VALID,1004.94,VALID,0,VALID,77.25,VALID,769.809,VALID,29.8255,VALID,156,VALID,1.59648,
2010-10-23, 02:58:04,VALID,1004.92,VALID,0,VALID,72.421,VALID,566.069,VALID,29.9793,VALID,137,VALID,1.09883,
2010-10-23, 02:59:04,VALID,1004.92,VALID,0,VALID,74.9538,VALID,620.976,VALID,30.0963,VALID,138,VALID,1.21758,
2010-10-23, 03:00:04,VALID,1004.92,VALID,0,VALID,71.9022,VALID,244.77,VALID,30.1353,VALID,145,VALID,1.08633,
2010-10-23, 03:01:04,VALID,1004.93,VALID,0,VALID,72.894,VALID,212.691,VALID,30.016,VALID,166,VALID,1.36211,
2010-10-23, 03:02:04,VALID,1004.9,VALID,0,VALID,73.7789,VALID,230.792,VALID,29.8623,VALID,135,VALID,0.897656,
2010-10-23, 03:03:04,VALID,1004.9,VALID,0,VALID,74.4274,VALID,486.423,VALID,29.7453,VALID,130,VALID,1.17578,
2010-10-23, 03:04:04,VALID,1004.93,VALID,0,VALID,73.7636,VALID,253.821,VALID,29.7063,VALID,135,VALID,1.82539,
2010-10-23, 03:05:04,VALID,1004.93,VALID,0,VALID,72.9092,VALID,737.328,VALID,29.6283,VALID,174,VALID,1.09609,
2010-10-23, 03:06:04,VALID,1004.94,VALID,0,VALID,72.009,VALID,758.345,VALID,29.7085,VALID,195,VALID,1.22461,
2010-10-23, 03:07:04,VALID,1004.92,VALID,0,VALID,73.7255,VALID,765.887,VALID,29.8233,VALID,172,VALID,0.766016,
2010-10-23, 03:08:04,VALID,1004.95,VALID,0,VALID,74.763,VALID,776.547,VALID,29.9793,VALID,119,VALID,1.18008,
2010-10-23, 03:09:04,VALID,1004.92,VALID,0,VALID,72.8482,VALID,792.436,VALID,30.1961,VALID,187,VALID,1.84023,
2010-10-23, 03:10:04,VALID,1004.96,VALID,0,VALID,73.1381,VALID,741.249,VALID,30.3109,VALID,156,VALID,1.64609,
2010-10-23, 03:11:04,VALID,1004.97,VALID,0,VALID,69.9568,VALID,823.912,VALID,30.3109,VALID,158,VALID,1.92227,
2010-10-23, 03:12:04,VALID,1004.94,VALID,0,VALID,68.8354,VALID,834.773,VALID,30.3109,VALID,149,VALID,2.2418,
2010-10-23, 03:13:04,VALID,1004.95,VALID,0,VALID,72.1158,VALID,846.338,VALID,30.211,VALID,158,VALID,1.49219,
2010-10-23, 03:14:04,VALID,1004.92,VALID,0,VALID,71.5818,VALID,644.608,VALID,30.3086,VALID,159,VALID,1.12422,
2010-10-23, 03:15:04,VALID,1004.93,VALID,0,VALID,70.6663,VALID,200.623,VALID,30.3086,VALID,196,VALID,1.55078,
2010-10-23, 03:16:04,VALID,1004.92,VALID,0,VALID,70.7502,VALID,205.752,VALID,30.094,VALID,147,VALID,1.78594,
2010-10-23, 03:17:04,VALID,1004.93,VALID,0,VALID,70.5366,VALID,455.751,VALID,29.977,VALID,207,VALID,2.3168,
2010-10-23, 03:18:04,VALID,1004.89,VALID,0,VALID,71.7801,VALID,889.479,VALID,29.8428,VALID,181,VALID,1.69375,
2010-10-23, 03:19:04,VALID,1004.88,VALID,0,VALID,72.5278,VALID,859.21,VALID,29.8015,VALID,198,VALID,1.46875,
2010-10-23, 03:20:04,VALID,1004.89,VALID,0,VALID,75.0987,VALID,852.975,VALID,29.9185,VALID,139,VALID,2.48164,
2010-10-23, 03:21:04,VALID,1004.9,VALID,0,VALID,72.1311,VALID,811.945,VALID,30.0378,VALID,145,VALID,1.68398,
2010-10-23, 03:22:04,VALID,1004.89,VALID,0,VALID,72.3752,VALID,398.732,VALID,30.1353,VALID,165,VALID,2.15703,
2010-10-23, 03:23:04,VALID,1004.9,VALID,0,VALID,72.1387,VALID,272.526,VALID,30.0963,VALID,164,VALID,1.67852,
2010-10-23, 03:24:04,VALID,1004.9,VALID,0,VALID,74.229,VALID,214.802,VALID,30.0183,VALID,190,VALID,1.07383,
2010-10-23, 03:25:04,VALID,1004.86,VALID,0,VALID,71.1469,VALID,212.992,VALID,29.9013,VALID,169,VALID,2.17539,
2010-10-23, 03:26:04,VALID,1004.89,VALID,0,VALID,71.742,VALID,374.295,VALID,29.7843,VALID,161,VALID,2.08672,
2010-10-23, 03:27:04,VALID,1004.89,VALID,0,VALID,72.9931,VALID,831.454,VALID,29.8015,VALID,165,VALID,1.225,
2010-10-23, 03:28:04,VALID,1004.81,VALID,0,VALID,70.4069,VALID,396.52,VALID,29.8818,VALID,207,VALID,1.95391,
2010-10-23, 03:29:04,VALID,1004.86,VALID,0,VALID,73.6797,VALID,256.737,VALID,29.86,VALID,132,VALID,2.34961,
2010-10-23, 03:30:04,VALID,1004.81,VALID,0,VALID,73.5348,VALID,259.654,VALID,29.845,VALID,187,VALID,1.63672,
2010-10-23, 03:31:04,VALID,1004.8,VALID,0,VALID,74.4808,VALID,587.288,VALID,29.7235,VALID,109,VALID,0.942187,
2010-10-23, 03:32:04,VALID,1004.79,VALID,0,VALID,75.4496,VALID,818.985,VALID,29.821,VALID,172,VALID,1.58125,
2010-10-23, 03:33:04,VALID,1004.78,VALID,0,VALID,72.0624,VALID,836.483,VALID,29.9013,VALID,175,VALID,2.39219,